Location: Shepherdstown, WV
(39.4326°N, 77.8042°W)
Time: 05:45:19
(UTC-04:00)

Vanguard 3 - Pass Details

Date: 05 August 2021
Orbit: 510 x 3260 km, 33.3° (Epoch: 21 September)

Event Time Altitude Azimuth Distance (km) Brightness Sun altitude
Rises 15:22:03 0° 198° (SSW) 4,096 11.1 54.6°
Reaches altitude 10° 15:25:08 10° 184° (S) 3,496 10.8 54.1°
Maximum altitude 15:32:14 24° 134° (SE) 3,299 10.4 52.9°
Drops below altitude 10° 15:42:32 10° 89° (E) 5,258 11.0 51.1°
Sets 15:48:36 0° 78° (ENE) 6,698 11.4 50.1°
